642  
ASUS43 KDTX 301710  
RWRMI  
MICHIGAN HOURLY REGIONAL WEATHER ROUNDUP  
NATIONAL WEATHER SERVICE DETROIT/PONTIAC MI  
100 PM EDT THU JUN 30 2016  
 
NOTE: "FAIR" INDICATES FEW OR NO CLOUDS BELOW 12,000 FEET WITH NO  
SIGNIFICANT WEATHER AND/OR TO VISIBILITY
.  
 
MIZ047>049-052>055-059>063-066>070-074>076-081>083-301800-  
SOUTHEAST LOWER MICHIGAN  
 
CITY SKY/WX TMP DP RH WIND PRES REMARKS
 
ADRIAN SUNNY 75 44 33 SW8 30.05F  
ALMA MOSUNNY 79 47 32 SW10G16 30.02F  
ANN ARBOR SUNNY 78 44 29 VRB7 30.03F  
BAD AXE SUNNY 77 41 27 W8G18 30.02F  
CARO SUNNY 78 47 34 SW7 30.01F  
DETROIT CITY SUNNY 79 44 28 SW12G18 30.02F  
DETROIT SUNNY 78 45 30 S6 30.02F  
FLINT SUNNY 81 39 22 VRB5 30.03F  
GROSSE ILE SUNNY 76 56 49 S7 30.02F  
HILLSDALE SUNNY 76 15 10 NW8 30.05F  
HOWELL SUNNY 78 35 21 SW6 30.03F  
 
CITY SKY/WX TMP DP RH WIND PRES REMARKS
 
JACKSON SUNNY 77 37 23 VRB6 30.04F  
LAMBERTVILLE SUNNY 80 45 28 SW6 30.04F  
LANSING SUNNY 77 46 33 W8 29.98F  
LAPEER FAIR 77 41 27 W14 30.03F  
MASON SUNNY 78 44 30 NW5 30.04F  
MONROE SUNNY 79 48 33 W8 30.02F  
MT. CLEMENS MOSUNNY 77 54 44 S12 30.00F  
PONTIAC MOSUNNY 76 43 30 VRB5 30.02F  
PORT HOPE N/A 77 48 35 W10 29.99F  
PORT HURON SUNNY 77 50 38 W8 30.02F  
TRI CITIES SUNNY 77 49 37 SW9 30.02F  
MIDLAND FAIR 78 49 35 SW8 30.00F  
TROY MOSUNNY 79 42 27 W7 30.03F  
SAGINAW HB SUNNY 77 46 33 S8 30.01F  

 
MIZ043>046-050>051-056>058-064>065-071>073-077>080-301800-  
SOUTHWEST LOWER MICHIGAN  
 
CITY SKY/WX TMP DP RH WIND PRES REMARKS
 
BATTLE CREEK SUNNY 74 47 38 VRB3 30.04F  
BENTON HARBOR SUNNY 79 49 34 W12 30.03F  
BIG RAPIDS PTSUNNY 75 51 42 SW9G16 30.00F  
COLDWATER PTSUNNY 75 48 38 W5 30.04F  
FREMONT PTSUNNY 77 55 46 W8G16 30.00F  
HOLLAND MOSUNNY 77 54 44 W8 30.03F  
GRAND RAPIDS MOSUNNY 82 46 28 S7 30.02F  
IONIA FAIR 79 43 27 W7G16 30.02F  
KALAMAZOO PTSUNNY 75 45 34 SW8 30.03F  
LUDINGTON SUNNY 72 58 62 SW10 30.00F  
MARSHALL MOSUNNY 77 45 31 S3 30.03F  
MOUNT PLEASANT MOSUNNY 79 47 31 SW7G16 30.00F  
MUSKEGON MOSUNNY 76 53 44 SW10G18 30.02F  
SOUTH HAVEN SUNNY 74 50 42 W9 30.03F  

 
MIZ016>042-301800-  
NORTHERN LOWER MICHIGAN  
 
CITY SKY/WX TMP DP RH WIND PRES REMARKS
 
ALPENA MOSUNNY 79 46 31 VRB6 29.97F  
BEAVER ISLAND SUNNY 73 57 57 SW10 29.95F  
BELLAIRE SUNNY 77 51 40 SW6 29.96F  
CADILLAC PTSUNNY 75 50 40 W8 29.99F  
CHARLEVOIX SUNNY 76 53 43 W13 29.99F  
FRANKFORT SUNNY 71 60 67 SW12 29.98F  
GAYLORD MOSUNNY 78 45 30 SW12G20 29.98F  
GRAYLING MOSUNNY 78 48 34 SW6G16 29.99F  
HARBOR SPRINGS MOSUNNY 75 53 44 W7 29.96S  
HOUGHTON LAKE SUNNY 75 45 34 VRB5 30.00F  
MANISTEE MOSUNNY 76 56 49 W15 29.97F  
OSCODA SUNNY 80 46 29 SW7G20 29.98F  
PELLSTON MOSUNNY 78 51 38 W10G22 29.95F  
ROGERS CITY MOSUNNY 80 47 31 SW9 29.96F  
TRAVERSE CITY PTSUNNY 80 49 33 SW13G20 29.94F  

 
MIZ007>008-015-301800-  
EASTERN UPPER MICHIGAN  
 
CITY SKY/WX TMP DP RH WIND PRES REMARKS
 
KINROSS SUNNY 76 53 44 SW12G20 29.93F  
MACKINAC ISLAN SUNNY 71 55 58 SW13G21 29.95F  
NEWBERRY CLOUDY 69 60 74 W3 29.91F  
S. S. MARIE PTSUNNY 73 57 57 NW7 29.91F  
MUNISING N/A 67 58 72 N8 29.91F  

 
MIZ004>006-011>014-085-301800-  
CENTRAL UPPER MICHIGAN  
 
CITY SKY/WX TMP DP RH WIND PRES REMARKS
 
MANISTIQUE MOSUNNY 68 60 75 S9 29.93F  
ESCANABA PTSUNNY 73 57 56 S15 29.91F  
MENOMINEE PTSUNNY 75 59 57 SW10 29.93F  
SAWYER-GWINN PTSUNNY 72 57 60 N8 29.91F  

 
MIZ001>003-009>011-084-301800-  
WESTERN UPPER MICHIGAN  
 
CITY SKY/WX TMP DP RH WIND PRES REMARKS
 
IRON MOUNTAIN PTSUNNY 74 52 46 VRB6 29.89F  
HOUGHTON LGT RAIN 61 58 90 W9 29.95R FOG  
COPPER HARBOR N/A 60 58 92 N5 29.94R  
IRONWOOD CLOUDY 59 59 100 W8 29.95R  

 
 
ABBREVIATIONS USED IN REMARKS  
TC - TEMPERATURE IN CELSIUS  
WCI - WIND CHILL INDEX  
HX - HEAT INDEX  
VSB - VISIBILITY  
 
 
 
CLICK HERE TO GO TO PREVIOUS BULLETINS.

The Nexlab MI Page Main Text Page